Probability
2 2 2 1 0 0 0 0 0 0 0 0 0 0 0 0 0 0 0 0 0 0 0 0 0 0 0 0 0 0 0 0 0 0 0 0 0 0 0 0 0 0 0
1 1 1 1 0 0 0 0 0 0 0 0 0 0 0 0 0 0 0 0 0 0 0 0 0 0 0 0 0 0 0 0 0 0 0 0 0 0 0 0 0 0 0
0 0 0 0 0 0 0 0 0 0 0 0 0 0 0 0 0 0 0 0 0 0 0 0 0 0 0 0 0 0 0 0 0 0 0 0 0 0 0 0 0 0 0
0 0 0 0 0 0 0 0 0 0 0 0 0 0 0 0 0 0 0 0 0 0 0 0 0 0 0 0 0 0 0 0 0 0 0 0 0 0 0 0 0 0 0
0 0 0 1 0 0 0 0 0 0 0 0 0 0 0 0 0 0 0 0 0 0 0 0 0 0 0 0 0 0 0 0 0 0 0 0 0 0 0 0 0 0 0
0 0 0 0 0 0 0 0 0 0 0 0 0 0 0 0 0 0 0 0 0 0 0 0 0 0 0 0 0 0 0 0 0 0 0 0 0 0 0 0 0 0 0
0 0 0 0 0 0 0 0 0 0 0 0 0 0 0 0 0 0 0 0 0 0 0 0 0 0 0 0 0 0 0 0 0 0 0 0 0 0 0 0 0 0 0
0 0 0 0 0 0 0 0 0 0 0 0 0 0 0 0 0 0 0 0 0 0 0 0 0 0 0 0 0 0 0 0 0 0 0 0 0 0 0 0 0 0 0
0 0 0 0 0 0 0 0 0 0 0 0 0 0 0 0 0 0 0 0 0 0 0 0 0 0 0 0 0 0 0 0 0 0 0 0 0 0 0 0 0 0 0
0 0 0 0 0 0 0 0 0 0 0 0 0 0 0 0 0 0 0 0 0 0 0 0 0 0 0 0 0 0 0 0 0 0 0 0 0 0 0 0 0 0 0
0 0 0 0 0 0 0 0 0 0 0 0 0 0 0 0 0 0 0 0 0 0 0 0 0 0 0 0 0 0 0 0 0 0 0 0 0 0 0 0 0 0 0
0 0 0 0 0 0 0 0 0 0 0 0 0 0 0 0 0 0 0 0 0 0 0 0 0 0 0 0 0 0 0 0 0 0 0 0 0 0 0 0 0 0 0
0 0 0 0 0 0 0 0 0 0 0 0 0 0 0 0 0 0 0 0 0 0 0 0 0 0 0 0 0 0 0 0 0 0 0 0 0 0 0 0 0 0 0
0 0 0 0 0 0 0 0 0 0 0 0 0 0 0 0 0 0 0 0 0 0 0 0 0 0 0 0 0 0 0 0 0 0 0 0 0 0 0 0 0 0 0
0 0 0 0 0 0 0 0 0 0 0 0 0 0 0 0 0 0 0 0 0 0 0 0 0 0 0 0 0 0 0 0 0 0 0 0 0 0 0 0 0 0 0
0 0 0 0 0 0 0 0 0 0 0 0 0 0 0 0 0 0 0 0 0 0 0 0 0 0 0 0 0 0 0 0 0 0 0 0 0 0 0 0 0 0 0
0 0 0 0 0 0 0 0 0 0 0 0 0 0 0 0 0 0 0 0 0 0 0 0 0 0 0 0 0 0 0 0 0 0 0 0 0 0 0 0 0 0 0
0 0 0 0 0 0 0 0 0 0 0 0 0 0 0 0 0 0 0 0 0 0 0 0 0 0 0 0 0 0 0 0 0 0 0 0 0 0 0 0 0 0 0
0 0 0 0 0 0 0 0 0 0 0 0 0 0 0 0 0 0 0 0 0 0 0 0 0 0 0 0 0 0 0 0 0 0 0 0 0 0 0 0 0 0 0
0 0 0 0 0 0 0 0 0 0 0 0 0 0 0 0 0 0 0 0 0 0 0 0 0 0 0 0 0 0 0 0 0 0 0 0 0 0 0 0 0 0 0
0 0 0 0 0 0 0 0 0 0 0 0 0 0 0 0 0 0 0 0 0 0 0 0 0 0 0 0 0 0 0 0 0 0 0 0 0 0 0 0 0 0 0
0 0 0 0 0 0 0 0 0 0 0 0 0 0 0 0 0 0 0 0 0 0 0 0 0 0 0 0 0 0 0 0 0 0 0 0 0 0 0 0 0 0 0
0 0 0 0 0 0 0 0 0 0 0 0 0 0 0 0 0 0 0 0 0 0 0 0 0 0 0 0 0 0 0 0 0 0 0 0 0 0 0 0 0 0 0
0 0 0 0 0 0 0 0 0 0 0 0 0 0 0 0 0 0 0 0 0 0 0 0 0 0 0 0 0 0 0 0 0 0 0 0 0 0 0 0 0 0 0
0 0 0 0 0 0 0 0 0 0 0 0 0 0 0 0 0 0 0 0 0 0 0 0 0 0 0 0 0 0 0 0 0 0 0 0 0 0 0 0 0 0 0
0 0 0 0 0 0 0 0 0 0 0 0 0 0 0 0 0 0 0 0 0 0 0 0 0 0 0 0 0 0 0 0 0 0 0 0 0 0 0 0 0 0 0
Wind_Speed
5 5 6 7 8 7 8 10 11 11 12 13 14 15 14 13 13 12 12 12 12 10 9 10 9 7 5 4 4 3 3 3 3 2 1 1 2 2 1 1 1 1 2
4 5 6 6 7 8 8 9 11 11 11 12 13 14 14 14 13 14 14 14 14 13 12 11 10 7 7 6 5 5 4 3 4 3 1 1 1 2 1 1 1 1 1
3 5 5 5 6 8 8 9 10 11 11 11 13 14 14 13 13 13 13 13 13 13 13 12 11 10 9 6 6 5 4 3 3 3 2 1 1 1 1 1 1 1 2
3 5 5 5 6 6 7 8 10 10 11 11 13 13 13 13 13 13 12 12 11 11 11 11 11 11 11 10 7 7 5 4 3 3 2 1 1 1 1 0 1 2 2
4 5 5 5 4 4 5 7 8 10 11 10 11 11 12 11 11 12 12 12 11 10 10 10 10 11 12 10 8 7 7 5 4 3 2 1 1 1 1 1 1 2 2
4 4 4 4 4 4 5 6 7 8 9 10 10 11 12 10 14 16 14 12 11 11 10 9 10 11 12 13 12 11 10 8 6 4 3 3 3 2 1 1 0 1 2
4 4 4 3 4 5 4 5 6 8 8 10 11 11 12 12 16 17 16 12 11 11 11 10 8 9 11 9 10 10 8 8 8 6 5 4 3 3 3 1 1 1 2
5 4 3 3 4 4 4 5 6 6 8 9 9 9 9 11 16 17 17 11 9 10 10 11 11 10 10 11 8 7 5 4 5 4 4 4 3 3 3 3 2 0 1
5 5 4 4 4 4 5 5 5 6 6 7 8 9 9 10 16 18 16 10 8 9 9 10 12 11 15 16 11 9 7 5 6 9 8 7 6 5 4 3 2 2 1
5 5 4 4 4 5 5 5 4 5 5 6 7 8 10 10 15 18 17 9 9 8 8 9 13 14 18 18 12 11 10 7 7 6 6 5 4 4 5 3 3 2 0
5 5 4 4 4 4 4 4 4 5 6 5 7 7 8 10 14 18 18 10 9 9 8 7 8 17 18 18 13 9 11 10 8 6 5 3 3 2 2 2 2 2 2
5 5 4 4 4 4 4 4 5 6 7 6 6 6 6 8 11 16 18 14 12 9 9 7 9 18 17 16 11 13 16 12 7 6 4 3 2 2 1 2 2 1 1
5 5 4 4 4 4 5 5 5 6 6 6 6 6 5 5 7 14 17 15 14 8 8 12 15 18 16 12 15 17 13 8 6 6 5 3 2 3 2 2 2 2 2
6 5 4 4 4 4 4 5 5 6 6 6 6 6 6 5 6 7 9 10 11 10 10 14 17 17 12 12 12 9 6 6 6 5 5 4 3 3 2 1 1 1 2
6 5 5 4 4 3 3 4 5 5 7 8 7 7 8 8 8 11 10 9 9 10 11 8 7 8 8 7 6 6 5 6 5 5 5 4 4 3 2 1 1 1 1
6 5 4 3 3 3 3 2 2 4 7 8 8 8 6 8 13 13 13 15 18 20 13 9 9 8 8 8 8 7 5 5 5 5 5 4 4 3 2 1 1 1 1
6 5 4 3 3 3 4 4 2 2 4 7 9 10 11 14 16 16 15 17 20 19 10 9 8 8 8 8 7 7 6 5 5 6 5 5 4 4 3 2 1 1 1
6 6 5 4 3 3 4 4 4 5 4 3 5 10 13 15 17 18 19 16 11 9 7 9 8 8 8 8 8 7 7 6 6 5 5 5 4 4 3 2 2 1 1
6 4 4 3 3 3 4 4 4 5 5 5 4 6 11 14 17 18 16 9 9 8 7 7 7 8 8 8 8 7 7 7 6 6 5 5 5 4 3 2 2 1 1
5 6 5 3 3 4 4 4 5 5 5 5 6 6 7 8 8 9 7 6 7 8 8 8 7 8 8 8 8 8 8 7 7 6 5 5 4 4 4 3 2 2 0
4 4 5 4 4 4 4 5 5 6 5 5 5 7 10 8 8 8 7 6 7 8 8 8 8 8 8 8 8 9 9 7 6 6 6 5 5 4 3 3 2 2 1
3 3 4 4 3 4 4 5 5 6 7 7 6 7 11 7 7 7 6 6 6 6 7 8 8 7 8 9 9 9 9 8 7 7 6 5 5 5 4 3 2 2 1
4 4 3 3 3 5 5 5 6 6 7 7 7 7 7 7 7 7 7 6 6 7 7 7 8 7 7 7 7 8 9 9 8 8 8 6 5 5 4 4 3 2 1
4 4 4 3 4 4 5 5 6 6 7 7 7 7 7 7 7 7 7 7 7 7 7 6 7 10 12 9 7 6 7 8 8 8 9 8 7 5 4 4 3 2 2
4 4 4 4 4 5 5 5 6 7 7 7 7 7 8 8 8 8 7 7 8 8 8 7 7 9 12 12 10 9 13 15 12 9 7 7 7 6 5 4 3 3 2
4 4 4 4 4 5 5 6 6 7 7 7 7 8 8 8 8 8 8 8 8 8 8 7 9 11 12 10 12 16 17 17 16 14 9 7 7 6 5 4 4 3 3
Wind_Direction
243 228 224 211 199 200 208 193 185 182 183 181 183 183 183 185 183 182 183 180 181 181 180 180 182 174 170 169 162 159 164 155 186 232 149 127 138 167 174 200 231 237 263
255 244 237 218 199 201 206 198 187 184 185 184 182 182 183 185 184 186 185 182 182 183 182 181 182 175 172 169 166 171 173 167 167 197 208 142 162 175 173 234 270 278 266
262 254 236 227 213 204 200 201 190 185 185 186 182 183 183 184 184 187 187 184 185 184 182 182 180 175 178 172 169 172 172 166 161 168 194 174 134 126 97 304 301 307 298
260 250 234 229 225 211 202 203 192 185 187 189 187 184 183 181 183 184 184 181 183 181 181 181 180 180 180 174 173 174 167 163 162 163 182 182 159 104 103 296 312 310 309
259 252 242 230 232 219 213 205 191 185 187 187 187 183 182 180 183 181 179 178 178 179 177 178 179 177 176 174 172 171 166 166 164 168 179 170 176 157 197 198 272 307 304
256 256 251 234 227 225 217 206 190 185 185 182 187 187 183 184 178 177 176 177 177 176 176 173 171 170 172 170 167 166 168 171 177 175 180 186 202 186 163 144 132 350 299
269 257 240 233 226 226 219 205 192 187 184 185 186 187 185 180 172 176 176 174 176 176 174 171 169 170 165 162 158 156 164 171 172 171 176 188 176 175 154 161 201 227 248
279 266 247 229 229 228 213 212 194 186 187 187 185 182 180 176 170 171 170 173 172 174 175 173 168 165 165 158 152 150 146 145 152 148 153 151 142 145 160 171 180 13 327
282 274 255 234 226 219 211 211 197 186 188 186 179 179 178 175 172 170 167 174 173 173 171 170 166 166 164 157 154 150 140 131 117 119 118 119 120 118 118 107 92 69 330
280 276 261 246 228 222 213 205 195 185 184 184 180 180 178 176 175 171 170 172 172 170 164 167 169 167 164 161 163 159 159 156 140 127 114 101 98 98 96 116 141 129 122
285 280 264 251 235 222 215 197 187 178 173 177 177 178 177 175 174 174 175 176 173 168 167 167 169 164 163 164 162 164 163 150 143 137 130 120 104 95 87 89 108 137 156
287 281 271 255 236 214 200 190 185 175 170 173 171 172 172 169 172 178 179 176 168 166 167 161 159 159 159 158 155 150 145 138 135 136 138 142 141 130 103 95 93 88 138
288 276 268 258 233 213 199 187 185 179 173 173 170 171 167 159 166 173 176 171 162 157 153 150 148 148 146 147 146 144 142 140 142 145 151 153 144 137 118 89 56 51 25
285 277 269 256 236 213 204 191 186 183 175 173 170 170 163 159 160 164 168 163 151 141 136 137 136 137 136 138 141 143 143 147 148 147 142 134 125 122 117 107 81 38 28
282 276 274 254 225 209 207 206 201 196 186 178 178 174 170 174 176 169 163 162 156 145 135 131 135 140 144 144 139 137 139 142 140 135 135 134 132 127 112 97 90 63 60
277 272 268 251 221 202 187 193 216 192 177 179 180 176 173 163 158 158 156 151 146 143 137 146 150 152 154 154 151 146 147 149 145 140 140 141 143 142 129 98 71 74 59
269 265 259 243 220 200 183 173 163 110 140 157 163 165 161 156 157 156 151 147 147 145 142 150 154 156 155 154 151 149 150 147 142 140 142 144 144 141 134 126 102 71 46
263 258 246 230 218 209 188 176 175 165 157 150 153 155 152 153 155 152 146 141 147 149 150 152 154 154 154 153 150 146 143 140 139 141 142 144 146 142 137 139 138 118 74
257 248 233 219 212 210 189 175 172 166 159 152 139 141 146 147 149 150 149 152 155 155 151 147 148 148 149 147 146 145 145 145 144 144 145 145 146 140 138 139 137 98 68
251 236 229 218 207 202 187 175 170 164 160 159 154 151 145 142 146 153 154 150 149 149 148 147 145 144 145 144 143 142 141 142 145 144 144 143 142 141 142 141 142 137 127
236 221 219 219 209 199 186 177 167 162 164 161 158 161 158 151 151 152 153 150 149 149 147 144 142 144 144 143 143 143 143 145 148 146 144 143 142 138 135 133 130 125 114
224 215 211 209 205 195 185 175 165 162 161 158 153 147 146 140 142 144 144 142 137 136 138 139 142 147 150 150 148 146 147 148 148 145 143 141 139 135 132 130 127 124 118
216 212 210 205 195 191 190 171 163 162 158 156 151 144 142 139 139 139 135 132 131 129 129 134 138 139 136 136 143 148 151 154 153 149 145 141 138 137 135 130 130 130 126
210 206 203 196 189 184 172 163 161 159 153 150 146 143 142 137 135 134 132 129 126 125 127 132 139 140 137 134 134 133 134 136 137 141 140 138 137 135 132 131 132 136 136
207 203 196 191 187 174 162 159 156 153 148 146 143 140 136 134 133 132 131 128 127 127 128 128 131 133 135 135 136 136 137 135 134 133 132 131 131 131 133 135 133 127 111
203 196 190 184 173 163 156 155 154 152 147 142 141 140 138 136 134 133 132 131 130 129 127 127 130 131 132 131 134 136 136 136 134 132 129 128 129 132 132 129 127 122 116